Weather History for Meadville, PA

Change the Weather History Date:

Thursday, August 1, 2013

  Actual Average Record
Temperature  
Mean Temperature 69 °F -  
Max Temperature 75 °F 80 °F 92 °F (1975)
Min Temperature 62 °F 56 °F 43 °F (1952)
Cooling Degree Days 4    
Growing Degree Days 19 (Base 50)    
Moisture  
Dew Point 61 °F    
Average Humidity 82    
Maximum Humidity 96    
Minimum Humidity 57    
Precipitation  
Precipitation 0.14 in - - ()
Sea Level Pressure  
Sea Level Pressure 29.90 in    
Wind  
Wind Speed 6 mph (WSW)    
Max Wind Speed 12 mph    
Max Gust Speed 18 mph    
Visibility 8 miles    
Events Rain    
Averages and records for this station are not official NWS values.
T = Trace of Precipitation, MM = Missing Value Source: NWS Daily Summary

Daily Weather History Graph

Daily Weather History Graph

Search for Another Location

Airport:

Trip Planner

Search our weather history database for the weather conditions in past years. The results will help you decide how hot, cold, wet, or windy it might be!

Date:

Astronomy

Aug. 01, 2013 Rise Set
Actual Time 6:15 AM EDT 8:38 PM EDT
Civil Twilight 5:44 AM EDT 9:09 PM EDT
Nautical Twilight 5:05 AM EDT 9:47 PM EDT
Astronomical Twilight 4:22 AM EDT 10:30 PM EDT
Moon 1:50 AM EDT (8/1) 4:46 PM EDT (8/1)
Length of Visible Light 15h 25m
Length of Day
14h 22m
Waning Crescent, 23% of the Moon is Illuminated
Aug 1
Waning Crescent
Aug 6
New
Aug 14
First Quarter
Aug 20
Full
Aug 28
Last Quarter

Hourly Weather History & Observations

Time (EDT) Temp. Dew Point Humidity Pressure Visibility Wind Dir Wind Speed Gust Speed Precip Events Conditions
12:53 AM 66.0 °F 60.1 °F 81% 29.93 in 10.0 mi Variable 4.6 mph - N/A   Mostly Cloudy
1:49 AM 64.4 °F 60.8 °F 88% 29.93 in 9.0 mi Variable 4.6 mph - N/A   Overcast
1:53 AM 64.9 °F 61.0 °F 87% 29.91 in 9.0 mi Variable 3.5 mph - N/A   Mostly Cloudy
2:03 AM 64.4 °F 62.6 °F 94% 29.92 in 8.0 mi South 4.6 mph - N/A   Scattered Clouds
2:30 AM 64.4 °F 62.6 °F 94% 29.92 in 8.0 mi Variable 3.5 mph - N/A   Mostly Cloudy
2:53 AM 64.9 °F 62.1 °F 90% 29.88 in 8.0 mi Variable 4.6 mph - N/A   Overcast
3:27 AM 64.4 °F 62.6 °F 94% 29.89 in 8.0 mi Variable 4.6 mph - N/A   Overcast
3:53 AM 64.9 °F 62.1 °F 90% 29.87 in 7.0 mi SSW 5.8 mph - N/A   Overcast
4:53 AM 64.9 °F 62.1 °F 90% 29.86 in 7.0 mi SSW 5.8 mph - N/A   Overcast
5:53 AM 64.0 °F 63.0 °F 96% 29.85 in 4.0 mi SSW 9.2 mph - 0.05 in Rain Light Rain
6:02 AM 64.4 °F 62.6 °F 94% 29.88 in 3.0 mi SSW 8.1 mph - 0.00 in Rain Light Rain
6:20 AM 64.4 °F 62.6 °F 94% 29.88 in 1.8 mi SSW 8.1 mph - 0.07 in Rain Heavy Rain
6:28 AM 64.4 °F 62.6 °F 94% 29.88 in 3.0 mi SSW 6.9 mph - 0.08 in Rain Light Rain
6:53 AM 64.0 °F 63.0 °F 96% 29.86 in 5.0 mi SW 4.6 mph - 0.08 in Rain Light Rain
7:30 AM 64.4 °F 62.6 °F 94% 29.89 in 3.0 mi SW 5.8 mph - 0.01 in Rain Light Rain
7:53 AM 64.9 °F 63.0 °F 93% 29.88 in 7.0 mi SW 3.5 mph - 0.01 in   Overcast
8:53 AM 66.0 °F 64.0 °F 93% 29.88 in 5.0 mi West 8.1 mph - N/A   Overcast
9:53 AM 66.9 °F 63.0 °F 87% 29.89 in 10.0 mi WNW 5.8 mph - N/A   Overcast
10:11 AM 69.8 °F 62.6 °F 78% 29.91 in 10.0 mi WNW 8.1 mph - N/A   Overcast
10:53 AM 68.0 °F 62.1 °F 81% 29.91 in 10.0 mi WNW 8.1 mph - N/A   Overcast
11:53 AM 71.1 °F 61.0 °F 70% 29.91 in 10.0 mi WNW 11.5 mph - N/A   Mostly Cloudy
12:53 PM 73.0 °F 61.0 °F 66% 29.91 in 10.0 mi WNW 11.5 mph 16.1 mph N/A   Partly Cloudy
1:53 PM 73.0 °F 60.1 °F 64% 29.90 in 10.0 mi West 11.5 mph 18.4 mph N/A   Partly Cloudy
2:53 PM 73.9 °F 61.0 °F 64% 29.90 in 10.0 mi NW 9.2 mph - N/A   Scattered Clouds
3:06 PM 73.4 °F 60.8 °F 65% 29.92 in 10.0 mi NNW 11.5 mph 16.1 mph N/A   Mostly Cloudy
3:13 PM 73.4 °F 60.8 °F 65% 29.92 in 10.0 mi WNW 10.4 mph - N/A   Scattered Clouds
3:53 PM 73.0 °F 61.0 °F 66% 29.91 in 10.0 mi NW 10.4 mph - N/A   Mostly Cloudy
4:53 PM 75.0 °F 59.0 °F 57% 29.90 in 10.0 mi WNW 10.4 mph 17.3 mph N/A   Scattered Clouds
5:53 PM 73.0 °F 57.9 °F 59% 29.90 in 10.0 mi WNW 8.1 mph - N/A   Partly Cloudy
6:53 PM 70.0 °F 57.9 °F 65% 29.91 in 10.0 mi Variable 3.5 mph - N/A   Clear
7:53 PM 70.0 °F 60.1 °F 71% 29.91 in 10.0 mi NW 3.5 mph - N/A   Clear
8:53 PM 66.0 °F 60.1 °F 81% 29.92 in 10.0 mi Calm Calm - N/A   Clear
9:53 PM 64.9 °F 60.1 °F 84% 29.93 in 10.0 mi Calm Calm - N/A   Partly Cloudy
10:53 PM 63.0 °F 59.0 °F 87% 29.92 in 10.0 mi Calm Calm - N/A   Clear
11:53 PM 62.1 °F 59.0 °F 90% 29.93 in 8.0 mi SSW 4.6 mph - N/A   Clear